[[{"header":{"parameterUnit":"m.s-1","parameterCategory":1,"la1":30.2991,"la2":30.254,"lo1":-89.0895,"lo2":-89.0444,"dy":0.0017,"dx":0.0017,"nx":28,"ny":28,"refTime":"2023-10-03T09:00:00:Z","depth":0,"parameterNumber":2,"parameterNumberName":"U-component_of_WINDS"},"data":[0,0,0,0,0,0,0,0,0,0,0,0,0,0,0,0,0,0,0,0,0,0,0,0,0,0,0,0,0,0,0,0,0,0,0,0,0,0,0,0,0,0,0,0,0,0,0,0,0,0,0,0,0,0,0,0,0,0,-2.4581,-2.4581,0,-2.4627,-2.4628,-2.4628,-2.4531,-2.4528,-2.4525,-2.4522,-2.4572,-2.4576,-2.458,0,0,0,0,0,0,0,0,0,0,0,0,0,-2.4409,-2.4412,-2.4581,-2.4581,-2.4582,-2.4627,-2.4628,-2.4628,-2.4532,-2.4528,-2.4524,-2.4521,-2.457,-2.4575,-2.458,0,0,0,0,0,0,0,0,0,0,0,0,0,-2.4472,-2.4414,-2.458,-2.4539,-2.4536,-2.4627,-2.4628,-2.4629,-2.4533,-2.4528,-2.4523,-2.4519,-2.4569,-2.4575,-2.4581,-2.4716,0,0,-2.4601,-2.4603,0,0,0,0,0,0,0,0,-2.4469,-2.4479,-2.4544,-2.4542,-2.4538,-2.4569,-2.4585,-2.4658,-2.4534,-2.4534,-2.4522,-2.4516,-2.4575,-2.458,-2.4599,-2.4718,-2.472,-2.4601,-2.4605,-2.4608,-2.461,0,0,0,0,0,0,0,-2.4465,-2.4476,-2.4599,-2.4546,-2.4542,-2.4518,-2.4522,-2.4599,-2.458,-2.4534,-2.4527,-2.4533,-2.4572,-2.4593,-2.46,-2.4721,-2.4601,-2.4607,-2.4611,-2.4613,-2.4952,-2.4957,0,0,0,0,0,0,-2.4465,-2.4473,-2.4598,-2.46,-2.4491,-2.4525,-2.4529,-2.4564,-2.4579,-2.4577,-2.4537,-2.4529,-2.4585,-2.4593,-2.4601,-2.476,-2.4608,-2.4614,-2.4617,-2.4947,-2.4953,-2.4959,0,0,0,0,0,0,-2.4462,-2.4477,-2.4596,-2.4535,-2.4548,-2.4533,-2.4573,-2.4567,-2.4588,-2.4582,-2.4578,-2.4563,-2.4581,-2.4592,-2.4688,-2.4761,-2.4617,-2.4623,-2.4941,-2.4949,-2.4956,-2.508,0,0,0,0,0,0,-2.4457,-2.4477,-2.4527,-2.4537,-2.4552,-2.4682,-2.4577,-2.4572,-2.46,-2.4589,-2.4605,-2.4603,-2.4579,-2.4679,-2.4694,-2.4767,-2.4628,-2.4934,-2.4945,-2.4954,-2.5069,-2.5091,-2.5109,0,0,0,0,0,-2.4452,-2.4561,-2.453,-2.4546,-2.4615,-2.4686,-2.4695,-2.4664,-2.4606,-2.4657,-2.4653,-2.4602,-2.475,-2.4689,-2.4706,-2.4782,-2.493,-2.4942,-2.4953,-2.506,-2.5087,-2.5109,0,0,0,0,0,0,-2.4561,-2.4561,-2.4528,-2.4643,-2.4665,-2.4669,-2.4733,-2.4693,-2.4732,-2.4721,-2.4681,-2.4685,-2.4789,-2.4794,-2.4727,-2.4913,-2.483,-2.4846,-2.4906,-2.4931,-2.4951,-2.4948,-2.4633,0,0,0,0,0,-2.4598,-2.4656,-2.4653,-2.4755,-2.4767,-2.4749,-2.4778,-2.4753,-2.4774,-2.4783,-2.4786,-2.481,-2.4861,-2.4896,-2.4943,-2.5069,-2.5071,-2.5129,-2.5149,-2.5165,-2.518,-2.5248,-2.5274,-2.4997,-2.4997,-2.4997,0,0,-2.4677,-2.4684,-2.4722,-2.4777,-2.4791,-2.4852,-2.4757,-2.4825,-2.487,-2.4794,-2.4885,-2.4887,-2.4911,-2.5022,-2.5072,-2.503,-2.5257,-2.518,-2.5194,-2.5199,-2.5263,-2.5289,-2.5312,-2.5005,-2.5004,-2.5002,0,0,-2.485,-2.4861,-2.4948,-2.4964,-2.4986,-2.4972,-2.4993,-2.5004,-2.5003,-2.5093,-2.5037,-2.5089,-2.5179,-2.5198,-2.5219,-2.54,-2.5356,-2.5416,-2.5522,-2.5589,-2.5611,-2.563,-2.5696,-2.5719,-2.543,-2.5431,-2.5431,0,-2.4945,-2.5034,-2.4997,-2.507,-2.5096,-2.5028,-2.5116,-2.5133,-2.517,-2.519,-2.5142,-2.5253,-2.5264,-2.538,-2.5424,-2.5443,-2.5466,-2.5415,-2.561,-2.5629,-2.5646,-2.5709,-2.5734,-2.5438,-2.5437,-2.5436,-2.5436,0,-2.515,-2.5213,-2.528,-2.5317,-2.535,-2.543,-2.5406,-2.5444,-2.5415,-2.5407,-2.5499,-2.551,-2.5558,-2.5583,-2.5556,-2.5695,-2.5669,-2.5617,-2.5533,-2.5681,-2.5739,-2.5762,-2.5448,-2.5446,-2.5444,-2.5442,0,0,-2.5396,-2.5411,-2.5437,-2.5453,-2.5472,-2.552,-2.5596,-2.5643,-2.5677,-2.5704,-2.5768,-2.5845,-2.5797,-2.5821,-2.5795,-2.5853,-2.5997,-2.5794,-2.5794,-2.5833,-2.6153,-2.6194,-2.6222,-2.5967,-2.5971,-2.5975,-2.6152,0,-2.557,-2.5701,-2.567,-2.5801,-2.5859,-2.5795,-2.5861,-2.5881,-2.5875,-2.5923,-2.5916,-2.5972,-2.5903,-2.5918,-2.5972,-2.5968,-2.6061,-2.5955,-2.6028,-2.6031,-2.6026,-2.6252,-2.6296,-2.6462,-2.6174,-2.6178,-2.6181,0,-2.579,-2.5826,-2.5962,-2.5972,-2.5995,-2.6056,-2.6096,-2.6143,-2.6164,-2.6155,-2.6182,-2.6145,-2.6221,-2.6135,-2.624,-2.6168,-2.6196,-2.6198,-2.6204,-2.6211,-2.6116,-2.6268,-2.6515,-2.6541,-2.6216,-2.6213,-2.621,0,-2.5958,-2.604,-2.6132,-2.6148,-2.6161,-2.6206,-2.6213,-2.6229,-2.6259,-2.6294,-2.6313,-2.6357,-2.6382,-2.6417,-2.6392,-2.6331,-2.6502,-2.6413,-2.6498,-2.6499,-2.6539,-2.6537,-2.6796,-2.6553,-2.6553,-2.6552,-2.6552,0,-2.6157,-2.6243,-2.6208,-2.6265,-2.636,-2.6323,-2.6418,-2.6418,-2.6433,-2.6489,-2.6436,-2.649,-2.6453,-2.6504,-2.6485,-2.6576,-2.6587,-2.6583,-2.6577,-2.6589,-2.659,-2.6608,-2.6597,-2.6559,-2.6558,-2.6556,-2.6555,0,-2.6362,-2.6341,-2.6438,-2.6442,-2.6445,-2.6516,-2.6519,-2.6573,-2.6562,-2.6634,-2.6649,-2.6633,-2.669,-2.6668,-2.6729,-2.6716,-2.6833,-2.6811,-2.6827,-2.6822,-2.6908,-2.6901,-2.719,-2.7226,-2.6959,-2.6961,-2.6963,0,-2.6491,-2.6556,-2.6567,-2.6601,-2.6612,-2.6667,-2.6697,-2.6662,-2.6696,-2.6724,-2.6775,-2.6827,-2.6868,-2.6962,-2.6957,-2.7003,-2.6983,-2.7081,-2.699,-2.7,-2.6987,-2.6985,-2.6991,-2.71,-2.7103,-2.7106,-2.7108,0,-2.6723,-2.6709,-2.6754,-2.6797,-2.6834,-2.6866,-2.6893,-2.6924,-2.689,-2.6931,-2.6989,-2.702,-2.7082,-2.7136,-2.7177,-2.7185,-2.7143,-2.7136,-2.7158,-2.7172,-2.7179,-2.7179,-2.6878,-2.713,-2.7128,-2.7126,-2.7125,-2.7124,-2.6895,-2.695,-2.6966,-2.7019,-2.7035,-2.7062,-2.7112,-2.7107,-2.7155,-2.7203,-2.7179,-2.7246,-2.7265,-2.7316,-2.733,-2.7383,-2.7345,-2.7377,-2.7386,-2.7395,-2.7407,-2.7169,-2.739,-2.7389,-2.7389,-2.7388,-2.7388,0,-2.7125,-2.7133,-2.7181,-2.722,-2.7262,-2.7215,-2.7243,-2.7281,-2.7341,-2.7361,-2.7402,-2.7469,-2.752,-2.7518,-2.7565,-2.7608,-2.759,-2.7622,-2.762,-2.7623,-2.7437,-2.7414,-2.7636,-2.7636,-2.7636,-2.7636,-2.7636,-2.7636,-2.7251,-2.7342,-2.733,-2.7429,-2.7435,-2.75,-2.752,-2.7544,-2.7561,-2.7638,-2.768,-2.7677,-2.7689,-2.7737,-2.7782,-2.778,-2.7801,-2.7842,-2.7833,-2.766,-2.7636,-2.7612,-2.759,-2.7846,-2.7846,-2.8014,-2.8015,-2.8017]},{"header":{"parameterUnit":"m.s-1","parameterCategory":1,"la1":30.2991,"la2":30.254,"lo1":-89.0895,"lo2":-89.0444,"dy":0.0017,"dx":0.0017,"nx":28,"ny":28,"refTime":"2023-10-03T09:00:00:Z","depth":0,"parameterNumber":3,"parameterNumberName":"V-component_of_WINDS"},"data":[0,0,0,0,0,0,0,0,0,0,0,0,0,0,0,0,0,0,0,0,0,0,0,0,0,0,0,0,0,0,0,0,0,0,0,0,0,0,0,0,0,0,0,0,0,0,0,0,0,0,0,0,0,0,0,0,0,0,-3.4236,-3.4236,0,-3.4237,-3.4237,-3.4237,-3.4184,-3.4183,-3.4181,-3.418,-3.4181,-3.4182,-3.4183,0,0,0,0,0,0,0,0,0,0,0,0,0,-3.4186,-3.4187,-3.4236,-3.4236,-3.4236,-3.4237,-3.4237,-3.4237,-3.4184,-3.4183,-3.4181,-3.4179,-3.418,-3.4182,-3.4183,0,0,0,0,0,0,0,0,0,0,0,0,0,-3.4199,-3.4187,-3.4236,-3.421,-3.4207,-3.4237,-3.4237,-3.4237,-3.4185,-3.4183,-3.418,-3.4178,-3.418,-3.4182,-3.4184,-3.4238,0,0,-3.419,-3.4191,0,0,0,0,0,0,0,0,-3.4199,-3.4201,-3.4214,-3.4212,-3.4209,-3.4208,-3.422,-3.4237,-3.4185,-3.4193,-3.418,-3.4177,-3.4192,-3.4192,-3.4197,-3.4238,-3.4238,-3.419,-3.4191,-3.4192,-3.4193,0,0,0,0,0,0,0,-3.4198,-3.4201,-3.4236,-3.4214,-3.4211,-3.4197,-3.4197,-3.4223,-3.4204,-3.4192,-3.4189,-3.4189,-3.419,-3.4196,-3.4197,-3.4238,-3.419,-3.4192,-3.4193,-3.4194,-3.4322,-3.4324,0,0,0,0,0,0,-3.4201,-3.42,-3.4236,-3.4236,-3.4199,-3.42,-3.4199,-3.4211,-3.4204,-3.4201,-3.4191,-3.4187,-3.4193,-3.4195,-3.4197,-3.4258,-3.4192,-3.4194,-3.4195,-3.4319,-3.4322,-3.4325,0,0,0,0,0,0,-3.42,-3.4204,-3.4236,-3.4217,-3.422,-3.4203,-3.4216,-3.4212,-3.4217,-3.4203,-3.4199,-3.4201,-3.4192,-3.4194,-3.4228,-3.4258,-3.4195,-3.4197,-3.4317,-3.432,-3.4323,-3.4384,0,0,0,0,0,0,-3.4199,-3.4204,-3.4226,-3.4218,-3.4222,-3.4268,-3.4218,-3.4213,-3.4221,-3.4215,-3.4211,-3.4208,-3.419,-3.4225,-3.423,-3.4259,-3.4198,-3.4314,-3.4318,-3.4322,-3.4379,-3.4389,-3.4397,0,0,0,0,0,-3.4197,-3.4243,-3.4227,-3.4232,-3.4248,-3.427,-3.4272,-3.4251,-3.4224,-3.4244,-3.4235,-3.4208,-3.4254,-3.4229,-3.4234,-3.4265,-3.4312,-3.4317,-3.4322,-3.4375,-3.4387,-3.4397,0,0,0,0,0,0,-3.4255,-3.4242,-3.4224,-3.4269,-3.4271,-3.4261,-3.4287,-3.4264,-3.4274,-3.4268,-3.4241,-3.424,-3.4278,-3.4275,-3.4247,-3.4316,-3.4278,-3.4284,-3.4317,-3.4328,-3.4337,-3.4336,-3.42,0,0,0,0,0,-3.4273,-3.4292,-3.428,-3.4321,-3.4322,-3.4304,-3.4313,-3.4297,-3.4298,-3.4298,-3.4291,-3.4293,-3.4307,-3.4317,-3.433,-3.4378,-3.4376,-3.4402,-3.4411,-3.4418,-3.4424,-3.4447,-3.4458,-3.4341,-3.4341,-3.4341,0,0,-3.431,-3.4305,-3.432,-3.4332,-3.4332,-3.4351,-3.4306,-3.4329,-3.4343,-3.4302,-3.4333,-3.4328,-3.4327,-3.4368,-3.4386,-3.4367,-3.4455,-3.4424,-3.4431,-3.4432,-3.4453,-3.4464,-3.4474,-3.4344,-3.4344,-3.4343,0,0,-3.4388,-3.4388,-3.442,-3.4421,-3.442,-3.4407,-3.4415,-3.4409,-3.4403,-3.4434,-3.4403,-3.4419,-3.4445,-3.4446,-3.4449,-3.4525,-3.4501,-3.453,-3.4577,-3.46,-3.4609,-3.4617,-3.4643,-3.4653,-3.4536,-3.4536,-3.4536,0,-3.4435,-3.4464,-3.444,-3.4465,-3.4471,-3.4434,-3.4466,-3.4467,-3.4471,-3.4476,-3.4454,-3.4484,-3.4482,-3.4521,-3.454,-3.4545,-3.4552,-3.4531,-3.461,-3.4618,-3.4625,-3.4649,-3.4659,-3.454,-3.4539,-3.4539,-3.4539,0,-3.452,-3.4541,-3.4568,-3.4571,-3.458,-3.4609,-3.4588,-3.46,-3.4582,-3.4571,-3.4602,-3.4597,-3.4608,-3.4616,-3.4599,-3.4652,-3.464,-3.4615,-3.4576,-3.464,-3.4662,-3.4671,-3.4545,-3.4543,-3.4542,-3.4541,0,0,-3.4636,-3.4625,-3.4635,-3.4635,-3.4631,-3.4646,-3.4672,-3.4682,-3.4692,-3.4695,-3.4716,-3.4738,-3.4713,-3.4718,-3.47,-3.4721,-3.4779,-3.4692,-3.4692,-3.4708,-3.4835,-3.4854,-3.4865,-3.4763,-3.4764,-3.4766,-3.4835,0,-3.4711,-3.4755,-3.4733,-3.478,-3.4797,-3.4761,-3.4783,-3.4783,-3.4773,-3.4786,-3.4775,-3.479,-3.4758,-3.476,-3.4779,-3.4768,-3.4804,-3.4763,-3.478,-3.4781,-3.4781,-3.4877,-3.4897,-3.4962,-3.4844,-3.4845,-3.4846,0,-3.4804,-3.481,-3.4858,-3.4849,-3.4855,-3.4876,-3.4882,-3.4895,-3.4893,-3.4884,-3.4888,-3.4865,-3.4889,-3.4851,-3.4883,-3.4856,-3.4861,-3.4857,-3.4859,-3.4859,-3.4817,-3.4878,-3.4983,-3.4992,-3.486,-3.4859,-3.4858,0,-3.4882,-3.4902,-3.4933,-3.4935,-3.4925,-3.494,-3.4936,-3.4932,-3.4938,-3.4943,-3.4947,-3.4955,-3.4959,-3.4966,-3.4945,-3.492,-3.4979,-3.494,-3.4972,-3.4972,-3.4986,-3.4985,-3.5091,-3.4991,-3.4991,-3.4991,-3.4991,0,-3.4967,-3.4997,-3.4967,-3.4986,-3.5019,-3.4993,-3.5025,-3.5018,-3.5014,-3.503,-3.5,-3.5015,-3.4988,-3.5001,-3.4985,-3.5012,-3.5015,-3.5008,-3.5003,-3.501,-3.5011,-3.5013,-3.5008,-3.4994,-3.4993,-3.4992,-3.4992,0,-3.5059,-3.5041,-3.5071,-3.5059,-3.5056,-3.508,-3.5069,-3.5086,-3.5073,-3.5094,-3.5097,-3.5078,-3.5091,-3.5071,-3.5082,-3.5072,-3.5109,-3.5098,-3.511,-3.5106,-3.5139,-3.5135,-3.5249,-3.5262,-3.5155,-3.5156,-3.5157,0,-3.5114,-3.5137,-3.5126,-3.5134,-3.5132,-3.5146,-3.5152,-3.5127,-3.5134,-3.5132,-3.5148,-3.5159,-3.5166,-3.5188,-3.5175,-3.5183,-3.5171,-3.521,-3.5172,-3.5177,-3.517,-3.5168,-3.5169,-3.5218,-3.5219,-3.522,-3.5221,0,-3.5214,-3.5203,-3.5212,-3.5218,-3.5226,-3.5229,-3.5231,-3.5239,-3.5212,-3.5222,-3.5235,-3.524,-3.525,-3.5261,-3.5265,-3.5261,-3.5236,-3.5233,-3.5241,-3.5247,-3.5253,-3.5249,-3.513,-3.5231,-3.523,-3.5229,-3.5228,-3.5228,-3.5288,-3.5305,-3.53,-3.5311,-3.5309,-3.531,-3.5324,-3.5313,-3.5323,-3.5329,-3.5313,-3.5329,-3.5325,-3.5328,-3.5326,-3.5337,-3.532,-3.5331,-3.5334,-3.5337,-3.5341,-3.5252,-3.5338,-3.5338,-3.5338,-3.5337,-3.5337,0,-3.5385,-3.5379,-3.5389,-3.5391,-3.5399,-3.5375,-3.5374,-3.5383,-3.5397,-3.5395,-3.5402,-3.5415,-3.5424,-3.5411,-3.5418,-3.543,-3.5418,-3.5432,-3.5431,-3.543,-3.5357,-3.5349,-3.5441,-3.5441,-3.5441,-3.5441,-3.5441,-3.5441,-3.5436,-3.5463,-3.5451,-3.5476,-3.547,-3.5484,-3.5486,-3.5487,-3.5484,-3.55,-3.5508,-3.5499,-3.5491,-3.5497,-3.5504,-3.55,-3.5503,-3.5521,-3.5513,-3.5445,-3.5435,-3.5425,-3.5418,-3.5522,-3.5522,-3.5584,-3.5584,-3.5585]}]]